Regional Weather Roundup
Issued by NWS

Home | Current Version | Previous Version | Graphics & Text | Print | Product List | Glossary On
Versions: 1 2 3 4 5 6 7 8 9 10 11 12 13 14 15 16 17 18 19 20 21 22 23 24 25 26 27 28 29 30 31 32 33 34 35 36 37 38 39 40 41 42 43 44 45 46 47 48 49 50
000
ASUS43 KLMK 230102
RWRKY
KENTUCKY REGIONAL WEATHER ROUNDUP
NATIONAL WEATHER SERVICE LOUISVILLE KY
900 PM EDT TUE JUL 22 2014

NOTE "FAIR" INDICATES FEW OR NO CLOUDS BELOW 12,000 FEET
WITH NO SIGNIFICANT WEATHER AND/OR OBSTRUCTIONS TO VISIBILITY.

KYZ001>023-026-027-061>063-070>075-230200-
WESTERN AND SOUTH CENTRAL KENTUCKY

CITY           SKY/WX    TMP DP  RH WIND       PRES   REMARKS
PADUCAH        CLEAR     83  72  69 SW3       30.02S
HENDERSON      CLEAR     82  73  74 CALM      30.01S
OWENSBORO      CLEAR     85  71  62 NW6       30.03R HX  90
HOPKINSVILLE   CLEAR     86  71  60 S5        30.03S HX  92
BOWLING GREEN  CLEAR     88  65  46 W3        30.03S HX  90
GLASGOW        CLEAR     85  67  55 CALM      30.04S
$$

KYZ024-025-028>034-038-045-046-053-230200-
NORTH CENTRAL KENTUCKY

CITY           SKY/WX    TMP DP  RH WIND       PRES   REMARKS
LOUISVILLE/SDF PTCLDY    88  70  55 SW7       30.02S HX  93
LOUISVILLE/LOU CLEAR     87  70  56 SW5       30.03R HX  92
FORT KNOX      PTCLDY    81  76  83 NW2       30.03R
$$

KYZ035>037-039>044-047>052-055>060-089>105-230200-
NORTHEAST KENTUCKY

CITY           SKY/WX    TMP DP  RH WIND       PRES   REMARKS
LEXINGTON      CLEAR     83  70  64 S7        30.06S
COVINGTON      CLEAR     82  67  60 W3        30.04S
FRANKFORT      CLEAR     82  72  71 CALM      30.04R
$$

KYZ054-064>069-076>088-106>120-230200-
SOUTHEAST KENTUCKY

CITY           SKY/WX    TMP DP  RH WIND       PRES   REMARKS
JACKSON        CLEAR     81  68  64 CALM      30.09S
LONDON         CLOUDY    80  71  74 CALM      30.09S
SOMERSET       RAIN      77  72  83 E5        30.08S
MIDDLESBORO    CLEAR     78  71  78 W3        30.10R
MONTICELLO     PTCLDY    80  76  87 CALM      30.09R
$$



USA.gov is the U.S. government's official web portal to all federal, state and local government web resources and services.